Time,TemperatureF,DewpointF,PressureIn,WindDirection,WindDirectionDegrees,WindSpeedMPH,WindSpeedGustMPH,Humidity,HourlyPrecipIn,Conditions,Clouds,dailyrainin,SoftwareType,DateUTC
2013-10-22 00:01:00,54.0,49.0,30.16,NNE,22,3.0,8.0,84,0.00,,,0.00,Rainwise IP-100,2013-10-22 05:01:00,
2013-10-22 00:06:00,53.7,48.0,30.16,North,360,3.3,7.0,84,0.00,,,0.00,Rainwise IP-100,2013-10-22 05:06:00,
2013-10-22 00:11:00,53.6,48.0,30.16,NNE,22,4.0,6.0,84,0.00,,,0.00,Rainwise IP-100,2013-10-22 05:11:00,
2013-10-22 00:16:00,53.4,48.0,30.16,NNW,337,2.1,4.0,84,0.00,,,0.00,Rainwise IP-100,2013-10-22 05:16:00,
2013-10-22 00:21:00,53.1,48.0,30.16,North,360,5.6,5.6,84,0.00,,,0.00,Rainwise IP-100,2013-10-22 05:21:00,
2013-10-22 00:26:00,52.8,48.0,30.16,North,360,2.8,6.0,84,0.00,,,0.00,Rainwise IP-100,2013-10-22 05:26:00,
2013-10-22 00:31:00,52.7,48.0,30.17,NNW,337,2.6,5.0,85,0.00,,,0.00,Rainwise IP-100,2013-10-22 05:31:00,
2013-10-22 00:36:00,52.6,48.0,30.16,NNE,22,5.4,5.4,85,0.00,,,0.00,Rainwise IP-100,2013-10-22 05:36:00,
2013-10-22 00:41:00,52.6,48.0,30.17,North,360,3.3,6.0,85,0.00,,,0.00,Rainwise IP-100,2013-10-22 05:41:00,
2013-10-22 00:46:00,52.4,47.0,30.17,North,360,3.3,4.0,85,0.00,,,0.00,Rainwise IP-100,2013-10-22 05:46:00,
2013-10-22 00:51:00,52.1,47.0,30.17,North,360,2.8,4.0,85,0.00,,,0.00,Rainwise IP-100,2013-10-22 05:51:00,
2013-10-22 00:56:00,51.9,47.0,30.17,North,360,3.3,4.0,85,0.00,,,0.00,Rainwise IP-100,2013-10-22 05:56:00,
2013-10-22 01:01:00,51.7,48.0,30.17,North,360,2.1,4.0,86,0.00,,,0.00,Rainwise IP-100,2013-10-22 06:01:00,
2013-10-22 01:06:00,51.6,48.0,30.17,North,360,3.5,4.0,86,0.00,,,0.00,Rainwise IP-100,2013-10-22 06:06:00,
2013-10-22 01:11:00,51.4,47.0,30.17,NNE,22,1.4,4.0,87,0.00,,,0.00,Rainwise IP-100,2013-10-22 06:11:00,
2013-10-22 01:16:00,51.2,47.0,30.17,North,360,3.0,3.0,87,0.00,,,0.00,Rainwise IP-100,2013-10-22 06:16:00,
2013-10-22 01:21:00,51.0,47.0,30.17,NNW,337,1.2,4.0,87,0.00,,,0.00,Rainwise IP-100,2013-10-22 06:21:00,
2013-10-22 01:26:00,51.0,47.0,30.17,NNW,337,2.1,4.0,87,0.00,,,0.00,Rainwise IP-100,2013-10-22 06:26:00,
2013-10-22 01:31:00,50.9,47.0,30.17,North,360,1.9,4.0,88,0.00,,,0.00,Rainwise IP-100,2013-10-22 06:31:00,
2013-10-22 01:36:00,50.7,47.0,30.17,North,360,1.2,3.0,88,0.00,,,0.00,Rainwise IP-100,2013-10-22 06:36:00,
2013-10-22 01:41:00,50.6,47.0,30.17,NNW,337,2.1,3.0,88,0.00,,,0.00,Rainwise IP-100,2013-10-22 06:41:00,
2013-10-22 01:46:00,50.5,47.0,30.17,NNW,337,0.0,3.0,88,0.00,,,0.00,Rainwise IP-100,2013-10-22 06:46:00,
2013-10-22 01:51:00,50.3,47.0,30.17,NNE,22,1.4,4.0,89,0.00,,,0.00,Rainwise IP-100,2013-10-22 06:51:00,
2013-10-22 01:56:00,50.2,47.0,30.17,North,360,2.8,4.0,89,0.00,,,0.00,Rainwise IP-100,2013-10-22 06:56:00,
2013-10-22 02:01:00,50.2,47.0,30.17,NNW,337,2.3,5.0,89,0.00,,,0.00,Rainwise IP-100,2013-10-22 07:01:00,
2013-10-22 02:06:00,50.4,47.0,30.17,NNW,337,2.1,7.0,88,0.00,,,0.00,Rainwise IP-100,2013-10-22 07:06:00,
2013-10-22 02:11:00,50.7,47.0,30.17,NNE,22,3.3,6.0,88,0.00,,,0.00,Rainwise IP-100,2013-10-22 07:11:00,
2013-10-22 02:16:00,50.8,47.0,30.17,North,360,3.5,7.0,87,0.00,,,0.00,Rainwise IP-100,2013-10-22 07:16:00,
2013-10-22 02:21:00,50.9,47.0,30.17,North,360,1.4,5.0,86,0.00,,,0.00,Rainwise IP-100,2013-10-22 07:21:00,
2013-10-22 02:26:00,50.8,47.0,30.17,North,360,1.2,4.0,86,0.00,,,0.00,Rainwise IP-100,2013-10-22 07:26:00,
2013-10-22 02:31:00,50.5,47.0,30.17,NNW,337,0.0,3.0,86,0.00,,,0.00,Rainwise IP-100,2013-10-22 07:31:00,
2013-10-22 02:36:00,50.2,46.0,30.18,NW,315,1.2,2.0,86,0.00,,,0.00,Rainwise IP-100,2013-10-22 07:36:00,
2013-10-22 02:41:00,49.9,46.0,30.17,NW,315,1.2,2.0,87,0.00,,,0.00,Rainwise IP-100,2013-10-22 07:41:00,
2013-10-22 02:46:00,49.5,47.0,30.17,NW,315,0.0,3.0,88,0.00,,,0.00,Rainwise IP-100,2013-10-22 07:46:00,
2013-10-22 02:51:00,49.3,46.0,30.17,NNW,337,2.3,3.0,88,0.00,,,0.00,Rainwise IP-100,2013-10-22 07:51:00,
2013-10-22 02:56:00,49.1,46.0,30.18,WNW,292,1.2,3.0,89,0.00,,,0.00,Rainwise IP-100,2013-10-22 07:56:00,
2013-10-22 03:01:00,49.1,46.0,30.18,WNW,292,2.1,3.0,89,0.00,,,0.00,Rainwise IP-100,2013-10-22 08:01:00,
2013-10-22 03:06:00,49.0,46.0,30.18,NNW,337,0.0,3.0,89,0.00,,,0.00,Rainwise IP-100,2013-10-22 08:06:00,
2013-10-22 03:11:00,48.9,46.0,30.18,NNW,337,1.9,4.0,89,0.00,,,0.00,Rainwise IP-100,2013-10-22 08:11:00,
2013-10-22 03:16:00,48.8,46.0,30.17,NNW,337,1.2,4.0,89,0.00,,,0.00,Rainwise IP-100,2013-10-22 08:16:00,
2013-10-22 03:21:00,48.8,47.0,30.18,NW,315,1.2,4.0,90,0.00,,,0.00,Rainwise IP-100,2013-10-22 08:21:00,
2013-10-22 03:26:00,48.7,47.0,30.18,West,270,1.6,4.0,90,0.00,,,0.00,Rainwise IP-100,2013-10-22 08:26:00,
2013-10-22 03:31:00,48.8,47.0,30.18,NNW,337,1.6,4.0,90,0.00,,,0.00,Rainwise IP-100,2013-10-22 08:31:00,
2013-10-22 03:36:00,48.8,46.0,30.17,WNW,292,0.0,5.0,89,0.00,,,0.00,Rainwise IP-100,2013-10-22 08:36:00,
2013-10-22 03:41:00,48.8,46.0,30.18,North,360,3.7,5.0,89,0.00,,,0.00,Rainwise IP-100,2013-10-22 08:41:00,
2013-10-22 03:46:00,49.0,46.0,30.18,NNW,337,1.9,6.0,89,0.00,,,0.00,Rainwise IP-100,2013-10-22 08:46:00,
2013-10-22 03:51:00,49.1,46.0,30.18,NW,315,0.0,5.0,88,0.00,,,0.00,Rainwise IP-100,2013-10-22 08:51:00,
2013-10-22 03:56:00,49.1,46.0,30.17,NNW,337,4.4,4.4,88,0.00,,,0.00,Rainwise IP-100,2013-10-22 08:56:00,
2013-10-22 04:01:00,49.1,45.0,30.18,NNW,337,2.1,5.0,87,0.00,,,0.00,Rainwise IP-100,2013-10-22 09:01:00,
2013-10-22 04:06:00,49.2,45.0,30.18,NW,315,3.5,5.0,87,0.00,,,0.00,Rainwise IP-100,2013-10-22 09:06:00,
2013-10-22 04:11:00,49.2,45.0,30.17,North,360,2.1,5.0,87,0.00,,,0.00,Rainwise IP-100,2013-10-22 09:11:00,
2013-10-22 04:16:00,49.2,45.0,30.17,NNW,337,1.9,6.0,87,0.00,,,0.00,Rainwise IP-100,2013-10-22 09:16:00,
2013-10-22 04:21:00,49.1,45.0,30.17,NNW,337,2.6,5.0,87,0.00,,,0.00,Rainwise IP-100,2013-10-22 09:21:00,
2013-10-22 04:26:00,49.0,45.0,30.17,NW,315,1.4,4.0,87,0.00,,,0.00,Rainwise IP-100,2013-10-22 09:26:00,
2013-10-22 04:31:00,48.8,46.0,30.17,NNW,337,1.6,4.0,88,0.00,,,0.00,Rainwise IP-100,2013-10-22 09:31:00,
2013-10-22 04:36:00,48.6,46.0,30.17,NNW,337,1.9,4.0,88,0.00,,,0.00,Rainwise IP-100,2013-10-22 09:36:00,
2013-10-22 04:41:00,48.3,45.0,30.17,NNW,337,1.9,4.0,88,0.00,,,0.00,Rainwise IP-100,2013-10-22 09:41:00,
2013-10-22 04:46:00,48.2,45.0,30.17,NW,315,4.7,4.7,89,0.00,,,0.00,Rainwise IP-100,2013-10-22 09:46:00,
2013-10-22 04:51:00,48.1,45.0,30.17,NW,315,1.4,5.0,89,0.00,,,0.00,Rainwise IP-100,2013-10-22 09:51:00,
2013-10-22 04:56:00,48.0,46.0,30.17,NW,315,1.6,3.0,90,0.00,,,0.00,Rainwise IP-100,2013-10-22 09:56:00,
2013-10-22 05:01:00,47.8,45.0,30.17,NW,315,3.3,4.0,90,0.00,,,0.00,Rainwise IP-100,2013-10-22 10:01:00,
2013-10-22 05:06:00,47.6,45.0,30.17,WNW,292,1.2,4.0,90,0.00,,,0.00,Rainwise IP-100,2013-10-22 10:06:00,
2013-10-22 05:11:00,47.4,45.0,30.17,NW,315,3.5,4.0,90,0.00,,,0.00,Rainwise IP-100,2013-10-22 10:11:00,
2013-10-22 05:16:00,47.3,44.0,30.17,NW,315,3.7,5.0,91,0.00,,,0.00,Rainwise IP-100,2013-10-22 10:16:00,
2013-10-22 05:21:00,47.3,44.0,30.16,NW,315,0.0,5.0,91,0.00,,,0.00,Rainwise IP-100,2013-10-22 10:21:00,
2013-10-22 05:26:00,47.2,44.0,30.17,NW,315,1.6,4.0,92,0.00,,,0.00,Rainwise IP-100,2013-10-22 10:26:00,
2013-10-22 05:31:00,47.0,44.0,30.17,NW,315,0.0,4.0,92,0.00,,,0.00,Rainwise IP-100,2013-10-22 10:31:00,
2013-10-22 05:36:00,46.9,44.0,30.17,NW,315,2.8,4.0,92,0.00,,,0.00,Rainwise IP-100,2013-10-22 10:36:00,
2013-10-22 05:41:00,46.8,44.0,30.17,NW,315,2.8,4.0,92,0.00,,,0.00,Rainwise IP-100,2013-10-22 10:41:00,
2013-10-22 05:46:00,46.7,44.0,30.17,NW,315,0.0,4.0,92,0.00,,,0.00,Rainwise IP-100,2013-10-22 10:46:00,
2013-10-22 05:51:00,46.6,44.0,30.17,NNW,337,3.0,4.0,92,0.00,,,0.00,Rainwise IP-100,2013-10-22 10:51:00,
2013-10-22 05:56:00,46.5,44.0,30.17,NNW,337,0.0,5.0,92,0.00,,,0.00,Rainwise IP-100,2013-10-22 10:56:00,
2013-10-22 06:01:00,46.3,44.0,30.17,NW,315,0.0,4.0,92,0.00,,,0.00,Rainwise IP-100,2013-10-22 11:01:00,
2013-10-22 06:06:00,46.2,44.0,30.17,NNW,337,3.3,3.3,92,0.00,,,0.00,Rainwise IP-100,2013-10-22 11:06:00,
2013-10-22 06:11:00,46.0,44.0,30.18,NNW,337,1.2,3.0,92,0.00,,,0.00,Rainwise IP-100,2013-10-22 11:11:00,
2013-10-22 06:16:00,45.9,44.0,30.18,NW,315,3.3,3.3,93,0.00,,,0.00,Rainwise IP-100,2013-10-22 11:16:00,
2013-10-22 06:21:00,45.8,44.0,30.17,NW,315,0.0,3.0,93,0.00,,,0.00,Rainwise IP-100,2013-10-22 11:21:00,
2013-10-22 06:26:00,45.6,44.0,30.18,NW,315,0.0,1.0,93,0.00,,,0.00,Rainwise IP-100,2013-10-22 11:26:00,
2013-10-22 06:31:00,45.3,43.0,30.18,NW,315,0.0,1.0,93,0.00,,,0.00,Rainwise IP-100,2013-10-22 11:31:00,
2013-10-22 06:36:00,45.0,43.0,30.18,NW,315,0.0,2.0,93,0.00,,,0.00,Rainwise IP-100,2013-10-22 11:36:00,
2013-10-22 06:41:00,44.7,43.0,30.18,NW,315,0.0,0.0,93,0.00,,,0.00,Rainwise IP-100,2013-10-22 11:41:00,
2013-10-22 06:46:00,44.4,42.0,30.18,NW,315,0.0,0.0,93,0.00,,,0.00,Rainwise IP-100,2013-10-22 11:46:00,
2013-10-22 06:51:00,44.1,42.0,30.18,NW,315,0.0,0.0,93,0.00,,,0.00,Rainwise IP-100,2013-10-22 11:51:00,
2013-10-22 06:56:00,43.8,42.0,30.18,NW,315,0.0,0.0,93,0.00,,,0.00,Rainwise IP-100,2013-10-22 11:56:00,
2013-10-22 07:01:00,43.6,42.0,30.18,NW,315,0.0,0.0,93,0.00,,,0.00,Rainwise IP-100,2013-10-22 12:01:00,
2013-10-22 07:06:00,43.5,42.0,30.18,NW,315,1.6,2.0,94,0.00,,,0.00,Rainwise IP-100,2013-10-22 12:06:00,
2013-10-22 07:11:00,43.5,42.0,30.18,NW,315,0.0,1.0,94,0.00,,,0.00,Rainwise IP-100,2013-10-22 12:11:00,
2013-10-22 07:16:00,43.5,43.0,30.19,NW,315,0.0,0.0,95,0.00,,,0.00,Rainwise IP-100,2013-10-22 12:16:00,
2013-10-22 07:21:00,43.3,42.0,30.18,NW,315,0.0,1.0,95,0.00,,,0.00,Rainwise IP-100,2013-10-22 12:21:00,
2013-10-22 07:26:00,43.1,42.0,30.18,NW,315,0.0,0.0,95,0.00,,,0.00,Rainwise IP-100,2013-10-22 12:26:00,
2013-10-22 07:31:00,42.9,42.0,30.19,NW,315,0.0,0.0,95,0.00,,,0.00,Rainwise IP-100,2013-10-22 12:31:00,
2013-10-22 07:36:00,42.5,42.0,30.19,NW,315,0.0,0.0,95,0.00,,,0.00,Rainwise IP-100,2013-10-22 12:36:00,
2013-10-22 07:41:00,42.0,41.0,30.19,NW,315,0.0,0.0,95,0.00,,,0.00,Rainwise IP-100,2013-10-22 12:41:00,
2013-10-22 07:46:00,41.8,41.0,30.19,NW,315,0.0,0.0,95,0.00,,,0.00,Rainwise IP-100,2013-10-22 12:46:00,
2013-10-22 07:51:00,41.6,41.0,30.19,NW,315,0.0,0.0,95,0.00,,,0.00,Rainwise IP-100,2013-10-22 12:51:00,
2013-10-22 07:56:00,41.2,40.0,30.19,NW,315,0.0,0.0,95,0.00,,,0.00,Rainwise IP-100,2013-10-22 12:56:00,
2013-10-22 08:01:00,41.0,40.0,30.19,NW,315,0.0,0.0,96,0.00,,,0.00,Rainwise IP-100,2013-10-22 13:01:00,
2013-10-22 08:06:00,41.2,40.0,30.19,NW,315,0.0,0.0,96,0.00,,,0.00,Rainwise IP-100,2013-10-22 13:06:00,
2013-10-22 08:11:00,42.0,41.0,30.20,NW,315,0.0,0.0,96,0.00,,,0.00,Rainwise IP-100,2013-10-22 13:11:00,
2013-10-22 08:16:00,42.9,42.0,30.20,NW,315,0.0,0.0,96,0.00,,,0.00,Rainwise IP-100,2013-10-22 13:16:00,
2013-10-22 08:21:00,43.7,43.0,30.20,NW,315,0.0,0.0,97,0.00,,,0.00,Rainwise IP-100,2013-10-22 13:21:00,
2013-10-22 08:26:00,44.3,43.0,30.20,NW,315,1.2,0.0,97,0.00,,,0.00,Rainwise IP-100,2013-10-22 13:26:00,
2013-10-22 08:31:00,44.6,44.0,30.20,West,270,1.9,3.0,98,0.00,,,0.00,Rainwise IP-100,2013-10-22 13:31:00,
2013-10-22 08:36:00,44.9,44.0,30.20,WSW,247,2.1,3.0,98,0.00,,,0.00,Rainwise IP-100,2013-10-22 13:36:00,
2013-10-22 08:41:00,45.7,45.0,30.20,West,270,0.0,2.0,98,0.00,,,0.00,Rainwise IP-100,2013-10-22 13:41:00,
2013-10-22 08:46:00,46.4,45.0,30.20,WNW,292,0.0,2.0,97,0.00,,,0.00,Rainwise IP-100,2013-10-22 13:46:00,
2013-10-22 08:51:00,47.0,46.0,30.21,WNW,292,1.9,2.0,97,0.00,,,0.00,Rainwise IP-100,2013-10-22 13:51:00,
2013-10-22 08:56:00,47.7,47.0,30.21,NW,315,3.3,3.3,96,0.00,,,0.00,Rainwise IP-100,2013-10-22 13:56:00,
2013-10-22 09:01:00,48.5,47.0,30.21,West,270,1.2,3.0,95,0.00,,,0.00,Rainwise IP-100,2013-10-22 14:01:00,
2013-10-22 09:06:00,49.3,47.0,30.21,NW,315,1.6,4.0,94,0.00,,,0.00,Rainwise IP-100,2013-10-22 14:06:00,
2013-10-22 09:11:00,50.0,47.0,30.21,NW,315,1.6,4.0,92,0.00,,,0.00,Rainwise IP-100,2013-10-22 14:11:00,
2013-10-22 09:16:00,50.7,47.0,30.21,WNW,292,1.2,4.0,90,0.00,,,0.00,Rainwise IP-100,2013-10-22 14:16:00,
2013-10-22 09:21:00,51.5,48.0,30.21,WSW,247,3.5,4.0,88,0.00,,,0.00,Rainwise IP-100,2013-10-22 14:21:00,
2013-10-22 09:26:00,52.2,48.0,30.21,West,270,1.2,4.0,87,0.00,,,0.00,Rainwise IP-100,2013-10-22 14:26:00,
2013-10-22 09:31:00,52.8,48.0,30.22,WSW,247,1.6,4.0,86,0.00,,,0.00,Rainwise IP-100,2013-10-22 14:31:00,
2013-10-22 09:36:00,53.4,48.0,30.22,WSW,247,0.0,3.0,84,0.00,,,0.00,Rainwise IP-100,2013-10-22 14:36:00,
2013-10-22 09:41:00,54.1,48.0,30.22,WSW,247,1.6,3.0,82,0.00,,,0.00,Rainwise IP-100,2013-10-22 14:41:00,
2013-10-22 09:46:00,54.8,49.0,30.22,SW,225,2.8,3.0,81,0.00,,,0.00,Rainwise IP-100,2013-10-22 14:46:00,
2013-10-22 09:51:00,55.3,49.0,30.22,WNW,292,0.0,4.0,79,0.00,,,0.00,Rainwise IP-100,2013-10-22 14:51:00,
2013-10-22 09:56:00,55.8,49.0,30.23,WSW,247,0.0,3.0,78,0.00,,,0.00,Rainwise IP-100,2013-10-22 14:56:00,
2013-10-22 10:01:00,56.5,49.0,30.23,WSW,247,3.5,5.0,77,0.00,,,0.00,Rainwise IP-100,2013-10-22 15:01:00,
2013-10-22 10:06:00,57.1,50.0,30.23,NNW,337,2.6,4.0,76,0.00,,,0.00,Rainwise IP-100,2013-10-22 15:06:00,
2013-10-22 10:11:00,58.1,50.0,30.23,WSW,247,3.3,4.0,75,0.00,,,0.00,Rainwise IP-100,2013-10-22 15:11:00,
2013-10-22 10:16:00,59.0,50.0,30.23,SW,225,1.9,4.0,73,0.00,,,0.00,Rainwise IP-100,2013-10-22 15:16:00,
2013-10-22 10:21:00,59.4,50.0,30.23,West,270,0.0,5.0,72,0.00,,,0.00,Rainwise IP-100,2013-10-22 15:21:00,
2013-10-22 10:26:00,59.6,50.0,30.23,West,270,0.0,4.0,71,0.00,,,0.00,Rainwise IP-100,2013-10-22 15:26:00,
2013-10-22 10:31:00,60.1,50.0,30.23,WSW,247,0.0,4.0,71,0.00,,,0.00,Rainwise IP-100,2013-10-22 15:31:00,
2013-10-22 10:36:00,60.5,50.0,30.23,WSW,247,3.0,4.0,68,0.00,,,0.00,Rainwise IP-100,2013-10-22 15:36:00,
2013-10-22 10:41:00,61.0,49.0,30.23,NW,315,4.7,4.7,65,0.00,,,0.00,Rainwise IP-100,2013-10-22 15:41:00,
2013-10-22 10:46:00,61.8,49.0,30.23,NNW,337,2.3,4.0,63,0.00,,,0.00,Rainwise IP-100,2013-10-22 15:46:00,
2013-10-22 10:51:00,62.4,48.0,30.23,NNE,22,0.0,4.0,59,0.00,,,0.00,Rainwise IP-100,2013-10-22 15:51:00,
2013-10-22 10:56:00,62.8,47.0,30.22,West,270,5.8,5.8,57,0.00,,,0.00,Rainwise IP-100,2013-10-22 15:56:00,
2013-10-22 11:01:00,62.7,47.0,30.22,WNW,292,2.1,7.0,57,0.00,,,0.00,Rainwise IP-100,2013-10-22 16:01:00,
2013-10-22 11:06:00,62.7,47.0,30.22,WSW,247,3.7,8.0,56,0.00,,,0.00,Rainwise IP-100,2013-10-22 16:06:00,
2013-10-22 11:11:00,63.2,47.0,30.22,WSW,247,7.5,7.5,56,0.00,,,0.00,Rainwise IP-100,2013-10-22 16:11:00,
2013-10-22 11:16:00,63.6,47.0,30.22,NNW,337,2.6,7.0,56,0.00,,,0.00,Rainwise IP-100,2013-10-22 16:16:00,
2013-10-22 11:21:00,64.0,47.0,30.22,NW,315,3.3,6.0,53,0.00,,,0.00,Rainwise IP-100,2013-10-22 16:21:00,
2013-10-22 11:26:00,64.3,46.0,30.22,WSW,247,4.9,8.0,52,0.00,,,0.00,Rainwise IP-100,2013-10-22 16:26:00,
2013-10-22 11:31:00,64.5,46.0,30.22,WSW,247,5.6,7.0,50,0.00,,,0.00,Rainwise IP-100,2013-10-22 16:31:00,
2013-10-22 11:36:00,64.8,45.0,30.21,NNW,337,4.4,6.0,49,0.00,,,0.00,Rainwise IP-100,2013-10-22 16:36:00,
2013-10-22 11:41:00,65.1,45.0,30.21,WNW,292,5.1,7.0,49,0.00,,,0.00,Rainwise IP-100,2013-10-22 16:41:00,
2013-10-22 11:46:00,65.2,47.0,30.21,SW,225,5.4,7.0,52,0.00,,,0.00,Rainwise IP-100,2013-10-22 16:46:00,
2013-10-22 11:51:00,65.5,48.0,30.21,SW,225,3.7,6.0,54,0.00,,,0.00,Rainwise IP-100,2013-10-22 16:51:00,
2013-10-22 11:56:00,65.9,48.0,30.21,WNW,292,2.6,7.0,53,0.00,,,0.00,Rainwise IP-100,2013-10-22 16:56:00,
2013-10-22 12:01:00,66.3,47.0,30.21,West,270,3.7,6.0,51,0.00,,,0.00,Rainwise IP-100,2013-10-22 17:01:00,
2013-10-22 12:06:00,66.7,46.0,30.20,NW,315,3.0,7.0,47,0.00,,,0.00,Rainwise IP-100,2013-10-22 17:06:00,
2013-10-22 12:11:00,67.1,44.0,30.20,East,90,2.1,7.0,43,0.00,,,0.00,Rainwise IP-100,2013-10-22 17:11:00,
2013-10-22 12:16:00,67.2,43.0,30.20,NW,315,1.4,7.0,42,0.00,,,0.00,Rainwise IP-100,2013-10-22 17:16:00,
2013-10-22 12:21:00,67.1,42.0,30.20,NNW,337,1.2,8.0,41,0.00,,,0.00,Rainwise IP-100,2013-10-22 17:21:00,
2013-10-22 12:26:00,67.2,42.0,30.20,WSW,247,6.1,7.0,40,0.00,,,0.00,Rainwise IP-100,2013-10-22 17:26:00,
2013-10-22 12:31:00,67.7,42.0,30.20,SSW,202,4.0,7.0,40,0.00,,,0.00,Rainwise IP-100,2013-10-22 17:31:00,
2013-10-22 12:36:00,68.3,43.0,30.20,NNE,22,4.2,5.0,40,0.00,,,0.00,Rainwise IP-100,2013-10-22 17:36:00,
2013-10-22 12:41:00,68.9,43.0,30.20,NW,315,1.9,6.0,39,0.00,,,0.00,Rainwise IP-100,2013-10-22 17:41:00,
2013-10-22 12:46:00,69.3,42.0,30.20,West,270,8.9,8.9,38,0.00,,,0.00,Rainwise IP-100,2013-10-22 17:46:00,
2013-10-22 12:51:00,69.3,41.0,30.19,West,270,0.0,9.0,36,0.00,,,0.00,Rainwise IP-100,2013-10-22 17:51:00,
2013-10-22 12:56:00,69.3,40.0,30.20,WSW,247,4.2,10.0,35,0.00,,,0.00,Rainwise IP-100,2013-10-22 17:56:00,
2013-10-22 13:01:00,69.3,41.0,30.19,WSW,247,4.0,7.0,36,0.00,,,0.00,Rainwise IP-100,2013-10-22 18:01:00,
2013-10-22 13:06:00,69.4,42.0,30.18,WNW,292,4.0,7.0,37,0.00,,,0.00,Rainwise IP-100,2013-10-22 18:06:00,
2013-10-22 13:11:00,69.8,42.0,30.18,WSW,247,1.6,7.0,37,0.00,,,0.00,Rainwise IP-100,2013-10-22 18:11:00,
2013-10-22 13:16:00,70.1,42.0,30.18,NW,315,1.4,7.0,36,0.00,,,0.00,Rainwise IP-100,2013-10-22 18:16:00,
2013-10-22 13:21:00,70.3,40.0,30.17,WNW,292,3.7,7.0,34,0.00,,,0.00,Rainwise IP-100,2013-10-22 18:21:00,
2013-10-22 13:26:00,70.6,41.0,30.17,WSW,247,1.9,3.0,34,0.00,,,0.00,Rainwise IP-100,2013-10-22 18:26:00,
2013-10-22 13:31:00,71.0,40.0,30.17,NW,315,5.4,9.0,33,0.00,,,0.00,Rainwise IP-100,2013-10-22 18:31:00,
2013-10-22 13:36:00,71.0,40.0,30.17,West,270,4.2,8.0,33,0.00,,,0.00,Rainwise IP-100,2013-10-22 18:36:00,
2013-10-22 13:41:00,71.0,40.0,30.16,NNW,337,0.0,6.0,33,0.00,,,0.00,Rainwise IP-100,2013-10-22 18:41:00,
2013-10-22 13:46:00,71.4,40.0,30.17,NNW,337,3.0,5.0,33,0.00,,,0.00,Rainwise IP-100,2013-10-22 18:46:00,
2013-10-22 13:51:00,71.7,40.0,30.17,NW,315,2.3,9.0,32,0.00,,,0.00,Rainwise IP-100,2013-10-22 18:51:00,
2013-10-22 13:56:00,71.7,39.0,30.16,NW,315,3.3,8.0,31,0.00,,,0.00,Rainwise IP-100,2013-10-22 18:56:00,
2013-10-22 14:01:00,71.6,40.0,30.15,WNW,292,2.1,8.0,32,0.00,,,0.00,Rainwise IP-100,2013-10-22 19:01:00,
2013-10-22 14:06:00,71.6,41.0,30.16,WNW,292,4.9,11.0,33,0.00,,,0.00,Rainwise IP-100,2013-10-22 19:06:00,
2013-10-22 14:11:00,71.6,40.0,30.16,WNW,292,2.3,8.0,32,0.00,,,0.00,Rainwise IP-100,2013-10-22 19:11:00,
2013-10-22 14:16:00,71.7,40.0,30.16,West,270,4.0,8.0,32,0.00,,,0.00,Rainwise IP-100,2013-10-22 19:16:00,
2013-10-22 14:21:00,71.8,40.0,30.15,WSW,247,3.7,9.0,32,0.00,,,0.00,Rainwise IP-100,2013-10-22 19:21:00,
2013-10-22 14:26:00,71.9,40.0,30.15,SSW,202,4.9,6.0,32,0.00,,,0.00,Rainwise IP-100,2013-10-22 19:26:00,
2013-10-22 14:31:00,71.9,39.0,30.15,NW,315,5.4,7.0,31,0.00,,,0.00,Rainwise IP-100,2013-10-22 19:31:00,
2013-10-22 14:36:00,71.8,39.0,30.14,WSW,247,1.6,10.0,31,0.00,,,0.00,Rainwise IP-100,2013-10-22 19:36:00,
2013-10-22 14:41:00,72.0,39.0,30.15,WNW,292,1.6,6.0,31,0.00,,,0.00,Rainwise IP-100,2013-10-22 19:41:00,
2013-10-22 14:46:00,72.2,40.0,30.14,SW,225,1.9,8.0,31,0.00,,,0.00,Rainwise IP-100,2013-10-22 19:46:00,
2013-10-22 14:51:00,72.3,40.0,30.14,WSW,247,9.6,9.6,31,0.00,,,0.00,Rainwise IP-100,2013-10-22 19:51:00,
2013-10-22 14:56:00,72.3,40.0,30.14,NW,315,6.5,9.0,31,0.00,,,0.00,Rainwise IP-100,2013-10-22 19:56:00,
2013-10-22 15:01:00,72.5,40.0,30.14,West,270,3.5,9.0,31,0.00,,,0.00,Rainwise IP-100,2013-10-22 20:01:00,
2013-10-22 15:06:00,72.7,40.0,30.14,SSW,202,2.6,6.0,31,0.00,,,0.00,Rainwise IP-100,2013-10-22 20:06:00,
2013-10-22 15:11:00,73.0,40.0,30.13,WSW,247,2.8,4.0,31,0.00,,,0.00,Rainwise IP-100,2013-10-22 20:11:00,
2013-10-22 15:16:00,73.4,41.0,30.13,NE,45,4.2,8.0,31,0.00,,,0.00,Rainwise IP-100,2013-10-22 20:16:00,
2013-10-22 15:21:00,73.5,40.0,30.13,WNW,292,3.5,7.0,30,0.00,,,0.00,Rainwise IP-100,2013-10-22 20:21:00,
2013-10-22 15:26:00,73.4,39.0,30.14,SSW,202,5.6,10.0,29,0.00,,,0.00,Rainwise IP-100,2013-10-22 20:26:00,
2013-10-22 15:31:00,73.4,39.0,30.13,SSW,202,1.2,9.0,29,0.00,,,0.00,Rainwise IP-100,2013-10-22 20:31:00,
2013-10-22 15:36:00,73.5,39.0,30.13,SW,225,1.6,8.0,29,0.00,,,0.00,Rainwise IP-100,2013-10-22 20:36:00,
2013-10-22 15:41:00,73.8,39.0,30.13,NW,315,3.3,7.0,29,0.00,,,0.00,Rainwise IP-100,2013-10-22 20:41:00,
2013-10-22 15:46:00,74.0,39.0,30.13,NW,315,5.1,6.0,28,0.00,,,0.00,Rainwise IP-100,2013-10-22 20:46:00,
2013-10-22 15:51:00,74.1,39.0,30.13,WNW,292,0.0,7.0,28,0.00,,,0.00,Rainwise IP-100,2013-10-22 20:51:00,
2013-10-22 15:56:00,74.4,39.0,30.13,WSW,247,3.7,7.0,28,0.00,,,0.00,Rainwise IP-100,2013-10-22 20:56:00,
2013-10-22 16:01:00,74.6,39.0,30.13,WSW,247,2.8,6.0,28,0.00,,,0.00,Rainwise IP-100,2013-10-22 21:01:00,
2013-10-22 16:06:00,74.5,39.0,30.12,NW,315,5.8,6.0,28,0.00,,,0.00,Rainwise IP-100,2013-10-22 21:06:00,
2013-10-22 16:11:00,74.6,38.0,30.12,NNE,22,4.4,7.0,27,0.00,,,0.00,Rainwise IP-100,2013-10-22 21:11:00,
2013-10-22 16:16:00,74.8,38.0,30.12,West,270,6.1,8.0,27,0.00,,,0.00,Rainwise IP-100,2013-10-22 21:16:00,
2013-10-22 16:21:00,74.5,38.0,30.12,WSW,247,2.6,8.0,26,0.00,,,0.00,Rainwise IP-100,2013-10-22 21:21:00,
2013-10-22 16:26:00,74.5,38.0,30.12,WSW,247,1.6,3.0,26,0.00,,,0.00,Rainwise IP-100,2013-10-22 21:26:00,
2013-10-22 16:31:00,75.2,38.0,30.12,NW,315,0.0,5.0,26,0.00,,,0.00,Rainwise IP-100,2013-10-22 21:31:00,
2013-10-22 16:36:00,75.3,38.0,30.12,NNW,337,2.8,7.0,26,0.00,,,0.00,Rainwise IP-100,2013-10-22 21:36:00,
2013-10-22 16:41:00,75.1,38.0,30.12,NNW,337,0.0,6.0,26,0.00,,,0.00,Rainwise IP-100,2013-10-22 21:41:00,
2013-10-22 16:46:00,75.3,38.0,30.12,WNW,292,0.0,3.0,26,0.00,,,0.00,Rainwise IP-100,2013-10-22 21:46:00,
2013-10-22 16:51:00,76.0,38.0,30.12,SW,225,0.0,2.0,26,0.00,,,0.00,Rainwise IP-100,2013-10-22 21:51:00,
2013-10-22 16:56:00,76.3,39.0,30.11,NE,45,1.4,3.0,26,0.00,,,0.00,Rainwise IP-100,2013-10-22 21:56:00,
2013-10-22 17:01:00,76.4,38.0,30.11,North,360,3.5,3.5,25,0.00,,,0.00,Rainwise IP-100,2013-10-22 22:01:00,
2013-10-22 17:06:00,76.3,38.0,30.11,WNW,292,3.5,6.0,25,0.00,,,0.00,Rainwise IP-100,2013-10-22 22:06:00,
2013-10-22 17:11:00,75.7,38.0,30.11,WNW,292,2.3,7.0,26,0.00,,,0.00,Rainwise IP-100,2013-10-22 22:11:00,
2013-10-22 17:16:00,75.2,37.0,30.11,West,270,3.3,5.0,25,0.00,,,0.00,Rainwise IP-100,2013-10-22 22:16:00,
2013-10-22 17:21:00,74.8,37.0,30.11,West,270,3.0,5.0,25,0.00,,,0.00,Rainwise IP-100,2013-10-22 22:21:00,
2013-10-22 17:26:00,74.5,37.0,30.11,NW,315,1.2,5.0,25,0.00,,,0.00,Rainwise IP-100,2013-10-22 22:26:00,
2013-10-22 17:31:00,74.7,38.0,30.11,WNW,292,0.0,3.0,26,0.00,,,0.00,Rainwise IP-100,2013-10-22 22:31:00,
2013-10-22 17:36:00,75.0,37.0,30.12,WNW,292,1.2,3.0,25,0.00,,,0.00,Rainwise IP-100,2013-10-22 22:36:00,
2013-10-22 17:41:00,74.5,38.0,30.11,ENE,67,9.1,9.1,26,0.00,,,0.00,Rainwise IP-100,2013-10-22 22:41:00,
2013-10-22 17:46:00,74.0,38.0,30.11,WSW,247,1.9,11.0,27,0.00,,,0.00,Rainwise IP-100,2013-10-22 22:46:00,
2013-10-22 17:51:00,74.4,38.0,30.11,NNW,337,1.9,4.0,27,0.00,,,0.00,Rainwise IP-100,2013-10-22 22:51:00,
2013-10-22 17:56:00,74.9,38.0,30.11,NNW,337,0.0,3.0,26,0.00,,,0.00,Rainwise IP-100,2013-10-22 22:56:00,
2013-10-22 18:01:00,75.0,39.0,30.11,North,360,0.0,3.0,27,0.00,,,0.00,Rainwise IP-100,2013-10-22 23:01:00,
2013-10-22 18:06:00,75.1,39.0,30.11,WNW,292,0.0,2.0,27,0.00,,,0.00,Rainwise IP-100,2013-10-22 23:06:00,
2013-10-22 18:11:00,75.3,39.0,30.11,WNW,292,0.0,1.0,27,0.00,,,0.00,Rainwise IP-100,2013-10-22 23:11:00,
2013-10-22 18:16:00,75.5,40.0,30.11,WNW,292,0.0,1.0,28,0.00,,,0.00,Rainwise IP-100,2013-10-22 23:16:00,
2013-10-22 18:21:00,75.5,41.0,30.11,WNW,292,0.0,1.0,29,0.00,,,0.00,Rainwise IP-100,2013-10-22 23:21:00,
2013-10-22 18:26:00,75.5,43.0,30.11,WNW,292,0.0,0.0,31,0.00,,,0.00,Rainwise IP-100,2013-10-22 23:26:00,
2013-10-22 18:31:00,75.4,44.0,30.11,WNW,292,0.0,0.0,33,0.00,,,0.00,Rainwise IP-100,2013-10-22 23:31:00,
2013-10-22 18:36:00,75.0,45.0,30.11,WNW,292,0.0,0.0,34,0.00,,,0.00,Rainwise IP-100,2013-10-22 23:36:00,
2013-10-22 18:41:00,74.5,46.0,30.11,WNW,292,0.0,0.0,36,0.00,,,0.00,Rainwise IP-100,2013-10-22 23:41:00,
2013-10-22 18:46:00,73.6,47.0,30.11,WNW,292,0.0,0.0,39,0.00,,,0.00,Rainwise IP-100,2013-10-22 23:46:00,
2013-10-22 18:51:00,72.3,47.0,30.11,WNW,292,0.0,0.0,41,0.00,,,0.00,Rainwise IP-100,2013-10-22 23:51:00,
2013-10-22 18:56:00,70.1,46.0,30.12,West,270,0.0,2.0,42,0.00,,,0.00,Rainwise IP-100,2013-10-22 23:56:00,
2013-10-22 19:01:00,67.5,45.0,30.11,West,270,0.0,2.0,44,0.00,,,0.00,Rainwise IP-100,2013-10-23 00:01:00,
2013-10-22 19:06:00,65.8,45.0,30.12,West,270,0.0,0.0,48,0.00,,,0.00,Rainwise IP-100,2013-10-23 00:06:00,
2013-10-22 19:11:00,64.7,47.0,30.12,West,270,0.0,0.0,52,0.00,,,0.00,Rainwise IP-100,2013-10-23 00:11:00,
2013-10-22 19:16:00,63.2,46.0,30.12,West,270,0.0,0.0,54,0.00,,,0.00,Rainwise IP-100,2013-10-23 00:16:00,
2013-10-22 19:21:00,61.9,46.0,30.13,West,270,0.0,0.0,56,0.00,,,0.00,Rainwise IP-100,2013-10-23 00:21:00,
2013-10-22 19:26:00,60.8,46.0,30.12,West,270,0.0,0.0,59,0.00,,,0.00,Rainwise IP-100,2013-10-23 00:26:00,
2013-10-22 19:31:00,59.7,46.0,30.13,West,270,0.0,0.0,60,0.00,,,0.00,Rainwise IP-100,2013-10-23 00:31:00,
2013-10-22 19:36:00,58.7,46.0,30.13,West,270,0.0,0.0,62,0.00,,,0.00,Rainwise IP-100,2013-10-23 00:36:00,
2013-10-22 19:41:00,57.7,45.0,30.13,West,270,0.0,0.0,63,0.00,,,0.00,Rainwise IP-100,2013-10-23 00:41:00,
2013-10-22 19:46:00,57.0,45.0,30.13,West,270,0.0,1.0,64,0.00,,,0.00,Rainwise IP-100,2013-10-23 00:46:00,
2013-10-22 19:51:00,56.4,45.0,30.13,West,270,0.0,0.0,65,0.00,,,0.00,Rainwise IP-100,2013-10-23 00:51:00,
2013-10-22 19:56:00,56.2,45.0,30.13,West,270,0.0,0.0,66,0.00,,,0.00,Rainwise IP-100,2013-10-23 00:56:00,
2013-10-22 20:01:00,55.8,46.0,30.13,West,270,0.0,1.0,68,0.00,,,0.00,Rainwise IP-100,2013-10-23 01:01:00,
2013-10-22 20:06:00,55.1,45.0,30.13,West,270,0.0,1.0,69,0.00,,,0.00,Rainwise IP-100,2013-10-23 01:06:00,
2013-10-22 20:11:00,54.6,45.0,30.13,West,270,1.4,0.0,70,0.00,,,0.00,Rainwise IP-100,2013-10-23 01:11:00,
2013-10-22 20:16:00,54.4,46.0,30.14,West,270,0.0,1.0,71,0.00,,,0.00,Rainwise IP-100,2013-10-23 01:16:00,
2013-10-22 20:21:00,54.3,45.0,30.14,West,270,0.0,0.0,72,0.00,,,0.00,Rainwise IP-100,2013-10-23 01:21:00,
2013-10-22 20:26:00,54.0,46.0,30.14,West,270,1.9,1.9,73,0.00,,,0.00,Rainwise IP-100,2013-10-23 01:26:00,
2013-10-22 20:31:00,53.8,45.0,30.14,West,270,0.0,1.0,72,0.00,,,0.00,Rainwise IP-100,2013-10-23 01:31:00,
2013-10-22 20:36:00,53.6,45.0,30.14,West,270,0.0,1.0,73,0.00,,,0.00,Rainwise IP-100,2013-10-23 01:36:00,
2013-10-22 20:41:00,53.4,45.0,30.14,West,270,0.0,0.0,74,0.00,,,0.00,Rainwise IP-100,2013-10-23 01:41:00,
2013-10-22 20:46:00,53.2,45.0,30.14,West,270,0.0,1.0,74,0.00,,,0.00,Rainwise IP-100,2013-10-23 01:46:00,
2013-10-22 20:51:00,53.1,45.0,30.14,West,270,0.0,1.0,74,0.00,,,0.00,Rainwise IP-100,2013-10-23 01:51:00,
2013-10-22 20:56:00,52.9,45.0,30.15,West,270,0.0,1.0,75,0.00,,,0.00,Rainwise IP-100,2013-10-23 01:56:00,
2013-10-22 21:01:00,52.5,45.0,30.15,West,270,0.0,1.0,74,0.00,,,0.00,Rainwise IP-100,2013-10-23 02:01:00,
2013-10-22 21:06:00,52.4,43.0,30.15,West,270,0.0,1.0,73,0.00,,,0.00,Rainwise IP-100,2013-10-23 02:06:00,
2013-10-22 21:11:00,52.3,44.0,30.15,West,270,0.0,0.0,74,0.00,,,0.00,Rainwise IP-100,2013-10-23 02:11:00,
2013-10-22 21:16:00,52.1,45.0,30.15,West,270,0.0,0.0,76,0.00,,,0.00,Rainwise IP-100,2013-10-23 02:16:00,
2013-10-22 21:21:00,51.9,45.0,30.15,West,270,0.0,0.0,77,0.00,,,0.00,Rainwise IP-100,2013-10-23 02:21:00,
2013-10-22 21:26:00,51.9,45.0,30.14,West,270,0.0,0.0,77,0.00,,,0.00,Rainwise IP-100,2013-10-23 02:26:00,
2013-10-22 21:31:00,51.7,45.0,30.15,West,270,1.6,1.6,78,0.00,,,0.00,Rainwise IP-100,2013-10-23 02:31:00,
2013-10-22 21:36:00,52.2,45.0,30.15,West,270,0.0,1.0,76,0.00,,,0.00,Rainwise IP-100,2013-10-23 02:36:00,
2013-10-22 21:41:00,53.1,44.0,30.15,West,270,1.2,1.2,72,0.00,,,0.00,Rainwise IP-100,2013-10-23 02:41:00,
2013-10-22 21:46:00,53.9,44.0,30.15,West,270,0.0,1.0,70,0.00,,,0.00,Rainwise IP-100,2013-10-23 02:46:00,
2013-10-22 21:51:00,54.6,45.0,30.15,West,270,1.9,1.9,69,0.00,,,0.00,Rainwise IP-100,2013-10-23 02:51:00,
2013-10-22 21:56:00,55.6,45.0,30.15,WSW,247,2.3,3.0,66,0.00,,,0.00,Rainwise IP-100,2013-10-23 02:56:00,
2013-10-22 22:01:00,57.2,44.0,30.15,WSW,247,2.1,3.0,61,0.00,,,0.00,Rainwise IP-100,2013-10-23 03:01:00,
2013-10-22 22:06:00,58.3,44.0,30.15,WSW,247,2.1,3.0,59,0.00,,,0.00,Rainwise IP-100,2013-10-23 03:06:00,
2013-10-22 22:11:00,58.8,44.0,30.15,WSW,247,2.1,3.0,57,0.00,,,0.00,Rainwise IP-100,2013-10-23 03:11:00,
2013-10-22 22:16:00,59.0,44.0,30.15,West,270,1.9,3.0,57,0.00,,,0.00,Rainwise IP-100,2013-10-23 03:16:00,
2013-10-22 22:21:00,59.0,44.0,30.15,WSW,247,2.1,3.0,57,0.00,,,0.00,Rainwise IP-100,2013-10-23 03:21:00,
2013-10-22 22:26:00,59.0,44.0,30.15,WSW,247,1.9,3.0,57,0.00,,,0.00,Rainwise IP-100,2013-10-23 03:26:00,
2013-10-22 22:31:00,58.9,44.0,30.16,West,270,3.3,3.3,57,0.00,,,0.00,Rainwise IP-100,2013-10-23 03:31:00,
2013-10-22 22:36:00,58.7,44.0,30.16,West,270,0.0,3.0,58,0.00,,,0.00,Rainwise IP-100,2013-10-23 03:36:00,
2013-10-22 22:41:00,58.3,43.0,30.16,West,270,0.0,1.0,58,0.00,,,0.00,Rainwise IP-100,2013-10-23 03:41:00,
2013-10-22 22:46:00,57.6,44.0,30.16,West,270,0.0,0.0,60,0.00,,,0.00,Rainwise IP-100,2013-10-23 03:46:00,
2013-10-22 22:51:00,56.8,44.0,30.16,West,270,0.0,0.0,62,0.00,,,0.00,Rainwise IP-100,2013-10-23 03:51:00,
2013-10-22 22:56:00,56.0,44.0,30.16,West,270,0.0,0.0,65,0.00,,,0.00,Rainwise IP-100,2013-10-23 03:56:00,
2013-10-22 23:01:00,55.4,44.0,30.16,West,270,0.0,0.0,67,0.00,,,0.00,Rainwise IP-100,2013-10-23 04:01:00,
2013-10-22 23:06:00,54.5,45.0,30.16,West,270,0.0,0.0,70,0.00,,,0.00,Rainwise IP-100,2013-10-23 04:06:00,
2013-10-22 23:11:00,53.3,43.0,30.16,West,270,0.0,1.0,71,0.00,,,0.00,Rainwise IP-100,2013-10-23 04:11:00,
2013-10-22 23:16:00,52.4,43.0,30.16,West,270,0.0,0.0,72,0.00,,,0.00,Rainwise IP-100,2013-10-23 04:16:00,
2013-10-22 23:21:00,51.9,44.0,30.16,West,270,0.0,0.0,74,0.00,,,0.00,Rainwise IP-100,2013-10-23 04:21:00,
2013-10-22 23:26:00,51.5,45.0,30.16,West,270,0.0,2.0,76,0.00,,,0.00,Rainwise IP-100,2013-10-23 04:26:00,
2013-10-22 23:31:00,51.1,44.0,30.16,West,270,0.0,1.0,76,0.00,,,0.00,Rainwise IP-100,2013-10-23 04:31:00,
2013-10-22 23:36:00,51.1,44.0,30.16,West,270,0.0,0.0,76,0.00,,,0.00,Rainwise IP-100,2013-10-23 04:36:00,
2013-10-22 23:41:00,51.3,44.0,30.16,West,270,0.0,0.0,76,0.00,,,0.00,Rainwise IP-100,2013-10-23 04:41:00,
2013-10-22 23:46:00,51.5,45.0,30.16,West,270,0.0,0.0,76,0.00,,,0.00,Rainwise IP-100,2013-10-23 04:46:00,
2013-10-22 23:51:00,51.0,45.0,30.16,West,270,1.4,1.4,78,0.00,,,0.00,Rainwise IP-100,2013-10-23 04:51:00,
2013-10-22 23:56:00,50.8,44.0,30.16,West,270,0.0,1.0,78,0.00,,,0.00,Rainwise IP-100,2013-10-23 04:56:00,